ファン・ネス彗星

213P/Van Ness (2017)

English version
Home page
Updated on June 3, 2017

---------------------------------------------------------------------

・ プロフィール

・ 写真集

・ 軌道要素

Epoch 2017 Oct. 14.0 TT = JDT 2458040.5
T 2017 Sept. 24.33139 TT                                MPC
q   1.9835376            (2000.0)            P               Q
n   0.16092763     Peri.    5.55541     +0.72880122     +0.67122854
a   3.3474619      Node   311.33020     -0.63495683     +0.58856129
e   0.4074503      Incl.   10.37879     -0.25627837     +0.45060832
P   6.12
From 2801 observations 2005 Aug. 4-2012 Feb. 3, mean residual 0".6.

・ 星図

・ 光度変化

        m1 = 6.0 + 5 logΔ + 30.0 log r

        ※ 灰色の曲線は、m1 = 2.5 + 5 logΔ + 30.0 log r の光度曲線です。

---------------------------------------------------------------------

軌道要素はM.P.E.C. 2014-J102に掲載されたものです。
星図はステラナビゲータ Ver.8 (アストロアーツ) で作成したものです。
光度グラフはComet for Windowsで作成したものです。

---------------------------------------------------------------------

Copyright(C) Seiichi Yoshida (comet@aerith.net). All rights reserved.